Regional Weather Roundup
Issued by NWS Austin/San Antonio, TX

Home | Current Version | Previous Version | Text Only | Print | Product List | Glossary On
Versions: 1 2 3 4 5 6 7 8 9 10 11 12 13 14 15 16 17 18 19 20 21 22 23 24 25 26 27 28 29 30 31 32 33 34 35 36 37 38 39 40 41 42 43 44 45 46 47 48 49 50
000
ASUS44 KEWX 270411
RWREWX
SOUTH TEXAS REGIONAL WEATHER ROUNDUP
NATIONAL WEATHER SERVICE AUSTIN/SAN ANTONIO TX
1000 PM CST SUN JAN 26 2020

NOTE: "FAIR" INDICATED FEW OR NO CLOUDS BELOW 12,000 FEET WITH NO
SIGNIFICANT WEATHER AND/OR OBSTRUCTIONS TO VISIBILITY.

* - THESE STATIONS ARE NOT NWS OR FAA STATIONS...AND ARE NOT SUBJECT
    TO NWS AND FAA QUALITY CONTROL.

TXZ171-172-183>190-270500-
TEXAS HILL COUNTRY AND EDWARDS PLATEAU

CITY           SKY/WX    TMP DP  RH WIND       PRES   REMARKS
JUNCTION       CLEAR     51  41  68 SW3       30.03S
*LLANO         CLEAR     52  43  71 CALM      30.05S
BURNET         CLEAR     56  45  66 NE6       30.04S
*HORSESHOE BAY NOT AVBL
*LAGO VISTA    CLEAR     56  50  79 NE7       30.02S
*KERRVILLE     CLEAR     51  44  77 CALM      30.04R
*FREDERICKSBRG CLEAR     48  42  79 CALM      30.04R
*ROCKSPRINGS   CLEAR     57  34  41 NE7       30.07R
*BOERNE        CLEAR     46  45  93 CALM      30.04R
*CASTROVILLE   CLEAR     57  48  73 CALM      30.02R
HONDO          CLEAR     55  46  71 NE8       30.00R
*UVALDE        CLEAR     55  42  61 NE5       30.00S HAZE
DEL RIO        CLEAR     59  37  44 CALM      29.98R
*LAUGHLIN AFB  NOT AVBL
*SPOFFORD      NOT AVBL
*EAGLE PASS    CLEAR     55  34  44 CALM      29.98R
CARRIZO SPRGS  CLEAR     55  37  50 CALM      29.97R
*FAITH RANCH   CLEAR     55  43  62 E6        29.98R
$$

TXZ173-191>194-202-209-217>225-228-270500-
CENTRAL AND SOUTH CENTRAL TEXAS

CITY           SKY/WX    TMP DP  RH WIND       PRES   REMARKS
GEORGETOWN     CLEAR     54  50  86 NE5       30.04S
*TAYLOR        CLEAR     56  51  82 NE3       30.02S
AUSTIN/BERGSTM CLEAR     59  51  75 NE7       30.01R
AUSTIN/MABRY   CLEAR     60  50  69 VRB3      30.02R
*PFLUGERVILLE  MOCLDY    54  50  87 NE3       30.03R
SAN MARCOS     CLEAR     55  47  74 NW3       30.02R
NEW BRAUNFELS  CLEAR     55  44  66 N7        30.00R
*RANDOLPH AFB  CLEAR     55  49  78 N6        30.00R
*SEGUIN        CLEAR     54  44  69 NE3       30.05R
SAN ANTONIO    CLEAR     60  46  59 CALM      30.01R
STINSON FIELD  CLEAR     57  49  74 CALM      29.98R
*KELLY FIELD   CLEAR     58  48  68 CALM      29.98R
*PLEASANTON    CLEAR     55  46  71 CALM      29.99R
*KENEDY        CLEAR     56  50  81 CALM      30.00R
*LA GRANGE     CLEAR     58  51  77 CALM      30.00R
*GIDDINGS      CLEAR     57  51  78 NE6       30.02S
*GONZALES      CLEAR     62  48  61 NE8       30.00R
$$

TXZ163>164-176>182-195>201-210>213-226-227-235-270500-
SOUTHEAST TEXAS

CITY           SKY/WX    TMP DP  RH WIND       PRES   REMARKS
COLLEGE STN    CLEAR     54  48  80 CALM      30.02R
*BRYAN         CLEAR     55  52  90 NW3       30.03R
*CALDWELL      CLEAR     51  50  95 CALM      30.03S
*CROCKETT      NOT AVBL
*BRENHAM       CLEAR     54  51  88 NW3       30.03R
HUNTSVILLE     CLEAR     53  49  86 CALM      30.00S
CONROE         CLEAR     51  49  92 CALM      30.01R FOG
HOUSTON BUSH   CLEAR     57  53  86 NW6       30.00R
HOUSTON HOBBY  FAIR      61  55  81 SE3       29.99R
*HOUSTON SW AP FAIR      55  54  97 CALM      30.00R
PEARLAND       FAIR      57  53  86 CALM      30.01R
HOUSTON HOOKS  FAIR      54  50  86 CALM      30.00R
ELLINGTON FLD  PTCLDY    59  55  88 E5        29.99
SUGAR LAND     FAIR      56  54  93 CALM      29.99R
*HOUSTON EXEC  FAIR      54  50  87 N5        30.01S
*CLEVELAND MUN FAIR      52  51  96 CALM      30.01R FOG
*WHARTON       CLEAR     57  49  75 N7        30.00R
*COLUMBUS      FAIR      55  45  68 N5        30.02R
*EAGLE LAKE    CLEAR     56  51  83 N6        30.00
$$

TXZ214>216-236>238-270500-
THE UPPER TEXAS COAST

CITY           SKY/WX    TMP DP  RH WIND       PRES   REMARKS
*ORANGE        CLOUDY    57  56  94 NE5       30.01S
PORT ARTHUR    MOCLDY    58  56  93 NE9       29.99R
GALVESTON      FAIR      61  59  93 NE7       29.99R
ANGLETON       FAIR      57  55  93 CALM      29.99R FOG
*BAY CITY      CLEAR     58  57  94 CALM      29.99R
PALACIOS       CLEAR     58  52  80 NE6       29.98R
$$

TXZ229>234-239>247-270500-
TEXAS COASTAL BEND AND RIO GRANDE PLAINS

CITY           SKY/WX    TMP DP  RH WIND       PRES   REMARKS
VICTORIA       CLEAR     56  51  84 CALM      29.99R
*BEEVILLE      NOT AVBL
ROCKPORT       FOG       57  53  86 CALM      29.98S VSB 3/4
*PORT ARANSAS  CLEAR     62  60  95 S5        30.00S
*PORT LAVACA   NOT AVBL
*INGLESIDE       N/A     60  59  97 SW3       29.98S FOG
CORPUS CHRISTI CLEAR     56  54  93 SE6       29.98R
CORPUS NAS     CLEAR     59  59 100 S5        29.98S FOG
*ROBSTOWN      CLEAR     57  49  74 S6        29.99R
ALICE          CLEAR     59  55  87 S3        29.98R
KINGSVILLE NAS CLEAR     57  56  96 SE7       29.98S FOG
COTULLA        CLEAR     60  46  59 SE6       29.97R
LAREDO         CLEAR     62  43  49 E6        29.97R
$$

TXZ248>255-270500-
DEEP SOUTH TEXAS

CITY           SKY/WX    TMP DP  RH WIND       PRES   REMARKS
BROWNSVILLE    CLOUDY    63  60  90 NE6       29.99S
PORT ISABEL    FAIR      62  59  90 NE6       29.98S
HARLINGEN      CLEAR     62  62 100 E10       29.99R FOG
*HEBBRONVILLE  CLEAR     60  48  63 CALM      30.00S
MCALLEN        CLEAR     63  58  83 SE7       29.99R
*WESLACO       MOCLDY    62  59  90 SE3       29.98
FALFURRIAS     CLEAR     61  54  77 E3        29.98S
EDINBURG       FAIR      60  56  85 E5        29.99S
*ZAPATA        FAIR      58  43  56 CALM      29.98S
$$

TXZ213>215-236>238-242>244-246-247-251-254-255-270500-
CMAN STATIONS

STATION/POSITION TIME  TEMP    WIND        PRES    WAVE
                       AIR SEA DIR/SP/G            HT/PER
                 (UTC) (F)     (DEG/KT/KT) (MB)    (FT/S)
SABINE PASS      0330   57 61   40/  6/  7 1017.0
SEA RIM ST PARK  0300   56      50/  6/  7 1015.2
NORTH JETTY/GLS  0330   60 60  120/  6/  9 1014.2
EAGLE POINT      0330   60 61   90/  4/  4 1014.9
MORGANS POINT    0330   60 61   70/  6/  7 1015.5
PORT O`CONNOR    0330   63 65     CALM     1014.9
PORT ARANSAS     0400   62 62  140/  5/  5 1015.1
MALAQUITE BEACH  0330   61 63  120/  5/  6 1014.9
BAFFIN BAY       0330   63 67  110/  6/  7 1015.6
PORT ISABEL      0330   63 67   50/  7/  9 1015.7
$$



USA.gov is the U.S. government's official web portal to all federal, state and local government web resources and services.